星链-37423(STARLINK-37423)

导读

STARLINK-37423(NORAD编号68852)是美国SpaceX公司星链(Starlink)星座中的一颗低轨互联网通信卫星。星链计划旨在构建覆盖全球的天基互联网系统,该卫星属于SpaceX批量部署的星链卫星之一,运行于近地轨道,主要为全球用户提供高速低延迟的互联网接入服务,支持偏远地区网络覆盖、应急通信等场景,是星链星座规模化组网的组成部分,延续了Starlink卫星标准化设计与批量发射部署的策略,助力SpaceX实现全球卫星互联网覆盖的目标。

Basic Information
目录编号:
68852
目录名称:
STARLINK-37423
国际标识:
2026-094P
轨道中心:
EARTH
卫星名称:
星链-37423
卫星全名:
星链-37423(STARLINK-37423)
卫星状态:
在轨 (已飞行140 天)
发射日期:
2026-04-26 UTC
国别 :
美国 (US)
星等 :
--
This satellite is enrolled in the Space Conjunction Data Service (SCDS) and the current flight risk assessment level is: No High Risk
Orbit Information
数据来源 国际轨道数据 AOE轨道数据
星历时间 2026-09-13T08:41:00+0800
11小时前
查看轨道信息
2026-09-07T02:00:00+0800
6天前
查看轨道信息
半长轴 6843.641km 6843.603km
偏心率 0.0001599 0.0001336
轨道倾角 97.283° 97.283°
近地点辐角 104.441° 95.510°
升交点赤经 269.277° 263.091°
平近点角 255.701° 187.721°
近地点 464.409km 464.551km
远地点 466.599km 466.381km
周期 93.905分钟 93.905分钟
每日圈数 15.334584 15.334711
Detailed Information
固有亮度:
5
最大亮度:
2.5
卫星平台:
Starlink V1.0
覆盖范围:
全球
运营商:
太空探索技术公司
运营商所在国:
美国
制造商(研发单位):
太空探索技术公司
制造商所在国:
美国
使用方式:
暂无
Satellite Introduction
Starlink 计划是 SpaceX 推出的全球卫星互联网项目,通过发射低轨道卫星,为全球尤其是偏远地区提供高速、低延迟的互联网服务。自 2019 年起,Starlink 已部署数千颗卫星,旨在缩小全球数字鸿沟,推动互联网普及。该项目还为军事、航空等行业提供通信支持,带来广泛经济效益。
2D Orbit Map
3D Orbit Map
Orbit Altitude Analysis Chart
Orbit Inclination Analysis Chart
Orbit Comprehensive Analysis Chart
View Comprehensive Chart
Conjunction Data List
Event ID Objects TCA Miss Dist (km) Collision Risk Probability Collision Risk Index (CRI) Action
CDM_260915-023305-316606-885221
2026-09-15T
02:33:59+0000
2.250 km
极远距离
1.80641E-6 低风险 0.4
CDM_260914-153706-223306-885221
2026-09-14T
15:37:59+0000
2.992 km
极远距离
1.294509E-6 低风险 0.37
CDM_260915-071605-082006-885221
2026-09-15T
07:16:03+0000
2.961 km
极远距离
1.25764E-6 低风险 0.37
CDM_260914-063405-196606-885222
2026-09-14T
06:34:29+0000
2.827 km
极远距离
9.284655E-7 极低风险 0.34
Miss Distance Evolution Trend with All Objects
Collision Probability Evolution Trend with All Objects